Regional Weather Roundup
Issued by NWS

Home | Current Version | Previous Version | Text Only | Print | Product List | Glossary Off
Versions: 1 2 3 4 5 6 7 8 9 10 11 12 13 14 15 16 17 18 19 20 21 22 23 24 25 26 27 28 29 30 31 32 33 34 35 36 37 38 39 40 41 42 43 44 45 46 47 48 49 50

000
ASUS43 KFSD 271710
RWRSD

WEATHER ROUNDUP FOR SOUTH DAKOTA
NATIONAL WEATHER SERVICE SIOUX FALLS SD
1100 AM CST FRI FEB 27 2015

NOTE: "FAIR" INDICATES FEW OR NO CLOUDS BELOW 12,000 FEET WITH NO
SIGNIFICANT WEATHER AND/OR OBSTRUCTIONS TO VISIBILITY.


SDZ001>005-009-010-012>017-271800-
NORTHWEST AND NORTH CENTRAL SOUTH DAKOTA

CITY           SKY/WX    TMP DP  RH WIND       PRES   REMARKS
BUFFALO          N/A     11   3  70 S14       30.06F WCI  -5
FAITH            N/A     14   0  53 S20G25    30.24F WCI  -3
MOBRIDGE       SUNNY      8   1  73 SE7       30.35F WCI  -3
$$

SDZ012>016-024>037-041>051-057-063-072>074-271800-
SOUTHWEST AND SOUTH CENTRAL SOUTH DAKOTA

CITY           SKY/WX    TMP DP  RH WIND       PRES   REMARKS
RAPID CTY ARPT SUNNY     13   4  67 S23G29    30.16F WCI  -6
PIERRE         SUNNY     16   2  54 S12       30.39F WCI   3
CUSTER         CLOUDY     9   2  73 VRB7G17   29.96F WCI  -2
ELLSWORTH AFB  MOSUNNY   14   3  63 S22       30.12F WCI  -5
PHILIP         SUNNY     17   1  49 S10       30.32F WCI   5
PINE RIDGE     SUNNY     17   6  62 S18G26    30.19F WCI   1
WINNER         FAIR      15   0  51 S12       30.41F WCI   2
$$

SDZ004>011-016>023-039-040-271800-
NORTHEAST SOUTH DAKOTA

CITY           SKY/WX    TMP DP  RH WIND       PRES   REMARKS
ABERDEEN       SUNNY      2  -5  72 S7        30.49F WCI -11
WATERTOWN      SUNNY      3  -4  72 SW6       30.46S WCI  -8
SISSETON         N/A     10  -3  55 W8        30.49S WCI  -2
$$

SDZ017-020-022-023-036>040-048>070-271800-
SOUTHEAST SOUTH DAKOTA

CITY           SKY/WX    TMP DP  RH WIND       PRES   REMARKS
SIOUX FALLS    SUNNY      7  -5  57 W7        30.53F WCI  -5
HURON          SUNNY      6  -4  63 VRB3      30.52F
CHAMBERLAIN    SUNNY     15  -1  48 S9        30.45F WCI   3
MITCHELL       SUNNY     13  -2  51 SW7       30.53F WCI   3
YANKTON        SUNNY      9  -6  52 CALM      30.57F
$$

ABBREVIATIONS USED IN REMARKS
   TC - TEMPERATURE IN CELSIUS
  WCI - WIND CHILL INDEX
   HX - HEAT INDEX
  VSB - VISIBILITY




USA.gov is the U.S. government's official web portal to all federal, state and local government web resources and services.